Time,TemperatureF,DewpointF,PressureIn,WindDirection,WindDirectionDegrees,WindSpeedMPH,WindSpeedGustMPH,Humidity,HourlyPrecipIn,Conditions,Clouds,dailyrainin,SoftwareType,DateUTC
2013-04-10 00:08:00,52.8,45.0,30.15,NNE,25,0.0,2.0,76,0.00,,,0.00,weatherlink.com 1.10,2013-04-10 07:08:00,
2013-04-10 00:23:00,53.2,46.0,30.16,NE,38,0.0,2.0,76,0.00,,,0.00,weatherlink.com 1.10,2013-04-10 07:23:00,
2013-04-10 00:38:00,53.4,46.0,30.16,NNE,19,0.0,3.0,76,0.00,,,0.00,weatherlink.com 1.10,2013-04-10 07:38:00,
2013-04-10 00:53:00,54.4,47.0,30.15,NNE,12,2.0,5.0,75,0.00,,,0.00,weatherlink.com 1.10,2013-04-10 07:53:00,
2013-04-10 01:08:00,54.7,47.0,30.16,North,349,0.0,3.0,74,0.00,,,0.00,weatherlink.com 1.10,2013-04-10 08:08:00,
2013-04-10 01:23:00,54.7,47.0,30.16,NNE,24,0.0,3.0,75,0.00,,,0.00,weatherlink.com 1.10,2013-04-10 08:23:00,
2013-04-10 01:38:00,54.8,47.0,30.16,NE,34,0.0,3.0,74,0.00,,,0.00,weatherlink.com 1.10,2013-04-10 08:38:00,
2013-04-10 01:53:00,55.1,47.0,30.16,NNE,33,0.0,4.0,73,0.00,,,0.00,weatherlink.com 1.10,2013-04-10 08:53:00,
2013-04-10 02:08:00,55.4,46.0,30.16,NNE,32,0.0,3.0,72,0.00,,,0.00,weatherlink.com 1.10,2013-04-10 09:08:00,
2013-04-10 02:24:00,53.9,46.0,30.16,NNE,28,0.0,4.0,74,0.00,,,0.00,weatherlink.com 1.10,2013-04-10 09:24:00,
2013-04-10 02:39:00,52.2,45.0,30.15,NNE,24,0.0,7.0,77,0.00,,,0.00,weatherlink.com 1.10,2013-04-10 09:39:00,
2013-04-10 02:54:00,51.4,45.0,30.15,NNE,30,2.0,6.0,79,0.00,,,0.00,weatherlink.com 1.10,2013-04-10 09:54:00,
2013-04-10 03:09:00,51.3,45.0,30.15,NNE,28,0.0,5.0,80,0.00,,,0.00,weatherlink.com 1.10,2013-04-10 10:09:00,
2013-04-10 03:24:00,51.9,46.0,30.15,NNE,21,2.0,4.0,80,0.00,,,0.00,weatherlink.com 1.10,2013-04-10 10:24:00,
2013-04-10 03:39:00,51.9,46.0,30.15,NNE,31,0.0,5.0,80,0.00,,,0.00,weatherlink.com 1.10,2013-04-10 10:39:00,
2013-04-10 03:54:00,52.3,46.0,30.15,NNE,30,0.0,4.0,80,0.00,,,0.00,weatherlink.com 1.10,2013-04-10 10:54:00,
2013-04-10 04:09:00,52.8,46.0,30.15,NNE,13,2.0,4.0,79,0.00,,,0.00,weatherlink.com 1.10,2013-04-10 11:09:00,
2013-04-10 04:24:00,52.5,46.0,30.15,NNE,19,0.0,4.0,79,0.00,,,0.00,weatherlink.com 1.10,2013-04-10 11:24:00,
2013-04-10 04:39:00,52.2,46.0,30.15,NNE,13,0.0,1.0,80,0.00,,,0.00,weatherlink.com 1.10,2013-04-10 11:39:00,
2013-04-10 04:54:00,52.9,46.0,30.15,NNE,27,0.0,2.0,78,0.00,,,0.00,weatherlink.com 1.10,2013-04-10 11:54:00,
2013-04-10 05:09:00,53.1,46.0,30.15,NE,34,0.0,5.0,77,0.00,,,0.00,weatherlink.com 1.10,2013-04-10 12:09:00,
2013-04-10 05:24:00,53.1,46.0,30.16,NNE,32,0.0,4.0,77,0.00,,,0.00,weatherlink.com 1.10,2013-04-10 12:24:00,
2013-04-10 05:39:00,53.9,46.0,30.16,NNE,24,1.0,6.0,75,0.00,,,0.00,weatherlink.com 1.10,2013-04-10 12:39:00,
2013-04-10 05:54:00,53.8,46.0,30.16,North,355,7.0,7.0,75,0.00,,,0.00,weatherlink.com 1.10,2013-04-10 12:54:00,
2013-04-10 06:09:00,52.8,46.0,30.17,NE,42,0.0,5.0,77,0.00,,,0.00,weatherlink.com 1.10,2013-04-10 13:09:00,
2013-04-10 06:24:00,52.4,46.0,30.17,NNE,24,1.0,5.0,78,0.00,,,0.00,weatherlink.com 1.10,2013-04-10 13:24:00,
2013-04-10 06:39:00,53.0,46.0,30.18,NNE,24,0.0,3.0,78,0.00,,,0.00,weatherlink.com 1.10,2013-04-10 13:39:00,
2013-04-10 06:54:00,53.8,47.0,30.18,NNE,24,0.0,4.0,77,0.00,,,0.00,weatherlink.com 1.10,2013-04-10 13:54:00,
2013-04-10 07:09:00,54.5,47.0,30.19,NNE,24,0.0,2.0,76,0.00,,,0.00,weatherlink.com 1.10,2013-04-10 14:09:00,
2013-04-10 07:24:00,53.8,47.0,30.20,NNE,22,0.0,1.0,77,0.00,,,0.00,weatherlink.com 1.10,2013-04-10 14:24:00,
2013-04-10 07:39:00,52.8,46.0,30.20,NW,317,0.0,0.0,79,0.00,,,0.00,weatherlink.com 1.10,2013-04-10 14:39:00,
2013-04-10 07:54:00,52.6,47.0,30.20,NNE,30,0.0,5.0,80,0.00,,,0.00,weatherlink.com 1.10,2013-04-10 14:54:00,
2013-04-10 08:09:00,53.3,47.0,30.21,NNE,15,0.0,4.0,80,0.00,,,0.00,weatherlink.com 1.10,2013-04-10 15:09:00,
2013-04-10 08:24:00,54.6,48.0,30.22,NNE,20,0.0,4.0,79,0.00,,,0.00,weatherlink.com 1.10,2013-04-10 15:24:00,
2013-04-10 08:39:00,55.7,49.0,30.22,North,355,0.0,2.0,78,0.00,,,0.00,weatherlink.com 1.10,2013-04-10 15:39:00,
2013-04-10 08:54:00,56.0,50.0,30.22,NNE,25,0.0,3.0,79,0.00,,,0.00,weatherlink.com 1.10,2013-04-10 15:54:00,
2013-04-10 09:09:00,56.5,50.0,30.22,NNE,26,0.0,2.0,78,0.00,,,0.00,weatherlink.com 1.10,2013-04-10 16:09:00,
2013-04-10 09:24:00,58.1,51.0,30.22,NNE,31,0.0,1.0,78,0.00,,,0.00,weatherlink.com 1.10,2013-04-10 16:24:00,
2013-04-10 09:54:00,57.5,50.0,30.22,South,190,1.0,4.0,76,0.00,,,0.00,weatherlink.com 1.10,2013-04-10 16:54:00,
2013-04-10 10:09:00,57.9,51.0,30.22,South,190,1.0,4.0,78,0.00,,,0.00,weatherlink.com 1.10,2013-04-10 17:09:00,
2013-04-10 10:24:00,58.6,52.0,30.22,South,171,1.0,3.0,78,0.00,,,0.00,weatherlink.com 1.10,2013-04-10 17:24:00,
2013-04-10 10:39:00,61.3,54.0,30.21,South,188,1.0,2.0,78,0.00,,,0.00,weatherlink.com 1.10,2013-04-10 17:39:00,
2013-04-10 10:54:00,63.1,54.0,30.22,SW,219,4.0,5.0,73,0.00,,,0.00,weatherlink.com 1.10,2013-04-10 17:54:00,
2013-04-10 11:09:00,59.9,53.0,30.22,SSW,202,2.0,4.0,77,0.00,,,0.00,weatherlink.com 1.10,2013-04-10 18:09:00,
2013-04-10 11:24:00,60.0,53.0,30.21,SSW,209,1.0,4.0,77,0.00,,,0.00,weatherlink.com 1.10,2013-04-10 18:24:00,
2013-04-10 11:39:00,59.4,52.0,30.21,South,191,3.0,4.0,77,0.00,,,0.00,weatherlink.com 1.10,2013-04-10 18:39:00,
2013-04-10 11:54:00,60.5,53.0,30.20,SSW,209,5.0,6.0,77,0.00,,,0.00,weatherlink.com 1.10,2013-04-10 18:54:00,
2013-04-10 12:09:00,60.3,53.0,30.20,SSW,199,3.0,6.0,76,0.00,,,0.00,weatherlink.com 1.10,2013-04-10 19:09:00,
2013-04-10 12:24:00,61.7,54.0,30.19,SSW,205,5.0,7.0,75,0.00,,,0.00,weatherlink.com 1.10,2013-04-10 19:24:00,
2013-04-10 12:39:00,61.7,53.0,30.19,SSE,161,4.0,7.0,73,0.00,,,0.00,weatherlink.com 1.10,2013-04-10 19:39:00,
2013-04-10 12:54:00,61.9,53.0,30.19,SSE,147,4.0,7.0,72,0.00,,,0.00,weatherlink.com 1.10,2013-04-10 19:54:00,
2013-04-10 13:10:00,62.5,54.0,30.19,SSW,195,4.0,7.0,74,0.00,,,0.00,weatherlink.com 1.10,2013-04-10 20:10:00,
2013-04-10 13:25:00,64.8,55.0,30.18,South,188,0.0,6.0,71,0.00,,,0.00,weatherlink.com 1.10,2013-04-10 20:25:00,
2013-04-10 13:40:00,63.9,55.0,30.17,SSW,207,5.0,8.0,72,0.00,,,0.00,weatherlink.com 1.10,2013-04-10 20:40:00,
2013-04-10 13:55:00,64.2,55.0,30.17,SW,231,7.0,8.0,72,0.00,,,0.00,weatherlink.com 1.10,2013-04-10 20:55:00,
2013-04-10 14:10:00,65.4,54.0,30.17,SSW,212,7.0,7.0,67,0.00,,,0.00,weatherlink.com 1.10,2013-04-10 21:10:00,
2013-04-10 14:25:00,65.7,55.0,30.17,South,178,2.0,9.0,68,0.00,,,0.00,weatherlink.com 1.10,2013-04-10 21:25:00,
2013-04-10 14:40:00,66.4,55.0,30.17,West,267,1.0,9.0,68,0.00,,,0.00,weatherlink.com 1.10,2013-04-10 21:40:00,
2013-04-10 14:55:00,67.3,56.0,30.17,West,281,3.0,8.0,67,0.00,,,0.00,weatherlink.com 1.10,2013-04-10 21:55:00,
2013-04-10 15:10:00,66.5,55.0,30.16,SE,142,5.0,7.0,66,0.00,,,0.00,weatherlink.com 1.10,2013-04-10 22:10:00,
2013-04-10 15:25:00,65.5,55.0,30.16,West,278,2.0,6.0,68,0.00,,,0.00,weatherlink.com 1.10,2013-04-10 22:25:00,
2013-04-10 15:40:00,64.6,55.0,30.15,South,177,4.0,9.0,71,0.00,,,0.00,weatherlink.com 1.10,2013-04-10 22:40:00,
2013-04-10 15:55:00,65.8,55.0,30.15,SSE,163,5.0,6.0,69,0.00,,,0.00,weatherlink.com 1.10,2013-04-10 22:55:00,
2013-04-10 16:10:00,66.0,56.0,30.15,SW,219,2.0,6.0,70,0.00,,,0.00,weatherlink.com 1.10,2013-04-10 23:10:00,
2013-04-10 16:25:00,66.1,55.0,30.14,SSW,210,2.0,7.0,68,0.00,,,0.00,weatherlink.com 1.10,2013-04-10 23:25:00,
2013-04-10 16:40:00,64.1,55.0,30.14,WSW,238,6.0,7.0,71,0.00,,,0.00,weatherlink.com 1.10,2013-04-10 23:40:00,
2013-04-10 16:55:00,63.0,54.0,30.14,SSW,200,3.0,7.0,73,0.00,,,0.00,weatherlink.com 1.10,2013-04-10 23:55:00,
2013-04-10 17:10:00,62.8,53.0,30.14,South,183,5.0,7.0,71,0.00,,,0.00,weatherlink.com 1.10,2013-04-11 00:10:00,
2013-04-10 17:25:00,62.6,54.0,30.14,SSW,204,4.0,6.0,74,0.00,,,0.00,weatherlink.com 1.10,2013-04-11 00:25:00,
2013-04-10 17:40:00,61.1,53.0,30.13,SW,223,5.0,7.0,74,0.00,,,0.00,weatherlink.com 1.10,2013-04-11 00:40:00,
2013-04-10 17:55:00,60.0,53.0,30.13,SSW,213,3.0,7.0,77,0.00,,,0.00,weatherlink.com 1.10,2013-04-11 00:55:00,
2013-04-10 18:10:00,60.3,53.0,30.12,SSW,209,4.0,5.0,76,0.00,,,0.00,weatherlink.com 1.10,2013-04-11 01:10:00,
2013-04-10 18:25:00,57.3,51.0,30.13,SW,223,3.0,7.0,80,0.00,,,0.00,weatherlink.com 1.10,2013-04-11 01:25:00,
2013-04-10 18:40:00,57.6,52.0,30.13,SW,223,0.0,4.0,81,0.00,,,0.00,weatherlink.com 1.10,2013-04-11 01:40:00,
2013-04-10 18:55:00,56.9,51.0,30.13,South,186,4.0,5.0,81,0.00,,,0.00,weatherlink.com 1.10,2013-04-11 01:55:00,
2013-04-10 19:10:00,55.0,50.0,30.14,South,176,1.0,5.0,84,0.00,,,0.00,weatherlink.com 1.10,2013-04-11 02:10:00,
2013-04-10 19:25:00,54.1,50.0,30.13,SW,214,0.0,2.0,86,0.00,,,0.00,weatherlink.com 1.10,2013-04-11 02:25:00,
2013-04-10 19:40:00,52.9,50.0,30.14,SSE,154,0.0,1.0,88,0.00,,,0.00,weatherlink.com 1.10,2013-04-11 02:40:00,
2013-04-10 19:55:00,52.5,49.0,30.14,SSE,148,0.0,0.0,89,0.00,,,0.00,weatherlink.com 1.10,2013-04-11 02:55:00,
2013-04-10 20:10:00,51.9,49.0,30.14,ENE,61,0.0,0.0,89,0.00,,,0.00,weatherlink.com 1.10,2013-04-11 03:10:00,
2013-04-10 20:40:00,52.1,50.0,30.14,East,95,0.0,0.0,91,0.00,,,0.00,weatherlink.com 1.10,2013-04-11 03:40:00,
2013-04-10 20:55:00,52.1,49.0,30.14,SE,124,0.0,0.0,90,0.00,,,0.00,weatherlink.com 1.10,2013-04-11 03:55:00,
2013-04-10 21:10:00,51.8,49.0,30.14,NNE,22,3.0,4.0,91,0.00,,,0.00,weatherlink.com 1.10,2013-04-11 04:10:00,
2013-04-10 21:25:00,51.6,49.0,30.14,NNE,24,0.0,4.0,91,0.00,,,0.00,weatherlink.com 1.10,2013-04-11 04:25:00,
2013-04-10 21:40:00,51.5,49.0,30.15,NNE,19,0.0,1.0,91,0.00,,,0.00,weatherlink.com 1.10,2013-04-11 04:40:00,
2013-04-10 21:55:00,51.4,49.0,30.15,NNE,21,0.0,0.0,92,0.00,,,0.00,weatherlink.com 1.10,2013-04-11 04:55:00,
2013-04-10 22:10:00,51.5,49.0,30.15,South,172,1.0,3.0,91,0.00,,,0.00,weatherlink.com 1.10,2013-04-11 05:10:00,
2013-04-10 22:25:00,51.8,49.0,30.15,ESE,122,1.0,4.0,91,0.00,,,0.00,weatherlink.com 1.10,2013-04-11 05:25:00,
2013-04-10 22:40:00,51.8,49.0,30.15,SSE,163,0.0,4.0,90,0.00,,,0.00,weatherlink.com 1.10,2013-04-11 05:40:00,
2013-04-10 22:55:00,51.5,49.0,30.16,South,182,0.0,0.0,91,0.00,,,0.00,weatherlink.com 1.10,2013-04-11 05:55:00,
2013-04-10 23:10:00,51.3,49.0,30.15,SSE,155,0.0,2.0,91,0.00,,,0.00,weatherlink.com 1.10,2013-04-11 06:10:00,
2013-04-10 23:25:00,51.1,49.0,30.14,SSW,202,0.0,1.0,91,0.00,,,0.00,weatherlink.com 1.10,2013-04-11 06:25:00,
2013-04-10 23:40:00,51.0,49.0,30.15,SW,215,0.0,0.0,91,0.00,,,0.00,weatherlink.com 1.10,2013-04-11 06:40:00,
2013-04-10 23:55:00,50.4,48.0,30.16,SW,215,0.0,0.0,92,0.00,,,0.00,weatherlink.com 1.10,2013-04-11 06:55:00,